BEIDOU-3 G4

Last updated on Tue Sep 22 2026 00:03:16 GMT+0000 (Coordinated Universal Time)

1 56564U 23066A 26264.68523169 -.00000285 00000+0 00000+0 0 9997 2 56564 0.4414 359.4680 0005403 197.3892 190.3804 1.00268068 12365
UTC large
Height (km)
Speed (km/s)
/
Latitude / Longitude
Inclination (degrees)
Orbital Period (minutes)
Azimuth
Elevation
Range (km)
Doppler Factor

Next 0 passes for location: London (51.5072 / 0.1276)

No passes found over London.
BEIDOU-3 G4